Flag for U.S.A. Weather past 2 weeks in Burbank, California, U.S.A.

Now
65 °F

Clear.


Feels Like: 65 °F
Forecast: 62 / 80 °F
Wind: 8 mph from Southeast

Location: Burbank-Glendale-Pasadena Airport

Current Time: Jul 4, 2015 at 11:40:59 PM

Latest Report: Jul 4, 2015 at 10:53 PM


Visibility: 6 mi

Pressure: 29.90 "Hg

Humidity: 78%

Dew point: 58 °F

Location of BurbankLocation

Historic Weather in Burbank — Graph

°F

Burbank temperature yesterday

Maximum temperature yesterday: 87 °F (at 1:53 PM)
Minimum temperature yesterday: 65 °F (at 6:53 AM)
Average temperature yesterday: 74 °F

Past Weeks' High & Low Weather Summary

 TemperatureHumidityPressure
High97 °F (Jun 29, 2:53 PM)85% (Jun 21, 5:53 AM)29.99 "Hg (Jun 21, 5:53 AM)
Low63 °F (Jun 26, 5:53 AM)14% (Jun 30, 7:53 PM)29.75 "Hg (Jun 20, 2:53 AM)
Average77 °F51%29.87 "Hg
* Reported Jun 19 9:53 PM — Jul 4 9:53 PM, Burbank, Weather by CustomWeather, © 2015

Note: Actual official high and low records may vary slightly from our data, if they occured in-between our weather recording intervals... More about our weather records

Advertising

Burbank weather history for previous 24 hours

 ConditionsComfort  
Time TempWeatherWind HumidityBarometerVisibility
9:53 PM
Sat, Jul 4
68 °FClear.8 mph70%29.88 "Hg10 mi
8:53 PM68 °FSunny.6 mph70%29.86 "Hg10 mi
7:53 PM70 °FSunny.8 mph66%29.84 "Hg10 mi
6:53 PM73 °FSunny.12 mph62%29.81 "Hg10 mi
5:53 PM78 °FSunny.10 mph50%29.80 "Hg10 mi
4:53 PM79 °FSunny.8 mph50%29.80 "Hg10 mi
3:53 PM80 °FSunny.13 mph49%29.82 "Hg10 mi
2:53 PM80 °FSunny.12 mph49%29.83 "Hg10 mi
1:53 PM81 °FSunny.9 mph49%29.84 "Hg10 mi
12:53 PM80 °FSunny.10 mph49%29.85 "Hg10 mi
11:53 AM79 °FSunny.9 mph50%29.85 "Hg8 mi
10:53 AM75 °FSunny.8 mph58%29.85 "Hg10 mi
9:53 AM73 °FSunny.6 mph59%29.85 "Hg10 mi
8:53 AM68 °FSunny.6 mph70%29.86 "Hg7 mi
7:53 AM65 °FScattered clouds.No wind78%29.85 "Hg7 mi
6:53 AM64 °FSunny.No wind81%29.84 "Hg8 mi
5:53 AM64 °FClear.No wind81%29.84 "Hg8 mi
4:53 AM64 °FClear.6 mph81%29.83 "Hg9 mi
3:53 AM64 °FClear.5 mph84%29.83 "Hg9 mi
2:53 AM64 °FClear.3 mph84%29.83 "Hg9 mi
1:53 AM65 °FClear.6 mph81%29.84 "Hg9 mi
12:53 AM66 °FClear.7 mph78%29.84 "Hg10 mi
11:53 PM
Fri, Jul 3
66 °FClear.6 mph78%29.85 "Hg10 mi
Weather by CustomWeather, © 2015

See weather overviewHow to use our weather pages